Eastsound, WA
on Sunday, February 3, 2013

Sunday
Previous Day Next Day
Daily Summary
 ActualAverage (KBLI)Record (KBLI)
Temperature
Mean Temperature °F 40°F  
Max Temperature 44°F 47°F 60°F (1992)
Min Temperature 39°F 33°F 5°F (1950)
Degree Days
Heating Degree Days 24 25  
Month to date heating degree days 75  
Cooling Degree Days 0 0  
Month to date cooling degree days 0  
Year to date cooling degree days 0  
Moisture
Dew Point 41°F   
Average Humidity 93    
Maximum Humidity 100    
Minimum Humidity 81    
Precipitation
Precipitation 0.00 in 0.12 in 1.39 in (1967)
Month to date precipitation 0.35  
Year to date precipitation 5.02  
Wind
Wind Speed 4 mph   
Max Wind Speed 12 mph   
Max Gust Speed mph   
Visibility 8 miles   
Events Rain   

Key: T is trace of precipitation, MM is missing value
Source: NWS Daily Summary
Time(PST)TemperatureDew PointHumidity Pressure Visibility Wind DirectionWind SpeedGust SpeedPrecipitationEvents Conditions
12:15 AM 41.0°F 39.2°F 93% 30.27 in 10.0 miles Calm Calm - N/A   Overcast
12:35 AM 41.0°F 39.2°F 93% 30.27 in 10.0 miles Calm Calm - N/A   Overcast
12:55 AM 41.0°F 39.2°F 93% 30.26 in 10.0 miles Calm Calm - N/A   Overcast
1:15 AM 41.0°F 39.2°F 93% 30.25 in 10.0 miles Calm Calm - N/A   Overcast
1:35 AM 41.0°F 39.2°F 93% 30.24 in 10.0 miles South 4.6 mph - N/A   Overcast
1:55 AM 41.0°F 39.2°F 93% 30.25 in 10.0 miles South 5.8 mph - N/A   Overcast
2:15 AM 41.0°F 39.2°F 93% 30.26 in 10.0 miles SSW 8.1 mph - N/A   Overcast
2:35 AM 41.0°F 39.2°F 93% 30.25 in 10.0 miles South 8.1 mph - N/A   Overcast
2:55 AM 41.0°F 39.2°F 93% 30.24 in 10.0 miles South 5.8 mph - N/A   Overcast
3:15 AM 41.0°F 39.2°F 93% 30.25 in 10.0 miles South 3.5 mph - N/A   Mostly Cloudy
3:35 AM 39.2°F 39.2°F 100% 30.25 in 10.0 miles South 3.5 mph - N/A   Partly Cloudy
3:55 AM 39.2°F 39.2°F 100% 30.25 in 10.0 miles South 3.5 mph - N/A   Partly Cloudy
4:15 AM 39.2°F 39.2°F 100% 30.25 in 10.0 miles South 4.6 mph - N/A   Scattered Clouds
4:35 AM 39.2°F 37.4°F 93% 30.24 in 10.0 miles South 3.5 mph - N/A   Partly Cloudy
4:55 AM 39.2°F 37.4°F 93% 30.24 in 10.0 miles Calm Calm - N/A   Scattered Clouds
5:15 AM 39.2°F 39.2°F 100% 30.25 in 10.0 miles South 4.6 mph - N/A   Mostly Cloudy
5:35 AM 41.0°F 39.2°F 93% 30.26 in 10.0 miles Calm Calm - N/A   Overcast
5:55 AM 41.0°F 39.2°F 93% 30.26 in 10.0 miles South 3.5 mph - N/A   Overcast
6:15 AM 41.0°F 39.2°F 93% 30.25 in 10.0 miles South 3.5 mph - N/A   Overcast
6:55 AM 41.0°F 39.2°F 93% 30.25 in 7.0 miles South 8.1 mph - N/A   Overcast
7:15 AM 39.2°F 39.2°F 100% 30.25 in 7.0 miles SSE 4.6 mph - N/A   Overcast
7:35 AM 39.2°F 39.2°F 100% 30.25 in 5.0 miles SSE 3.5 mph - N/A   Overcast
7:55 AM 39.2°F 39.2°F 100% 30.26 in 5.0 miles South 3.5 mph - N/A   Overcast
8:15 AM 39.2°F 39.2°F 100% 30.27 in 6.0 miles South 5.8 mph - N/A   Overcast
8:35 AM 39.2°F 39.2°F 100% 30.27 in 5.0 miles Calm Calm - N/A   Overcast
8:55 AM 41.0°F 39.2°F 93% 30.27 in 6.0 miles SSE 3.5 mph - N/A   Overcast
9:15 AM 41.0°F 39.2°F 93% 30.27 in 8.0 miles SSE 3.5 mph - N/A   Overcast
9:35 AM 41.0°F 39.2°F 93% 30.26 in 8.0 miles South 5.8 mph - N/A   Overcast
9:55 AM 41.0°F 39.2°F 93% 30.25 in 9.0 miles South 4.6 mph - N/A   Overcast
10:15 AM 41.0°F 39.2°F 93% 30.27 in 10.0 miles SSW 11.5 mph - N/A   Overcast
10:35 AM 42.8°F 39.2°F 87% 30.28 in 10.0 miles SSW 8.1 mph - N/A   Overcast
10:55 AM 44.6°F 39.2°F 81% 30.28 in 10.0 miles South 5.8 mph - N/A   Overcast
11:15 AM 44.6°F 41.0°F 87% 30.27 in 10.0 miles South 8.1 mph - N/A   Mostly Cloudy
11:35 AM 44.6°F 41.0°F 87% 30.26 in 10.0 miles South 9.2 mph - N/A   Scattered Clouds
11:55 AM 44.6°F 41.0°F 87% 30.27 in 10.0 miles South 8.1 mph - N/A   Partly Cloudy
12:15 PM 44.6°F 41.0°F 87% 30.26 in 10.0 miles South 8.1 mph - N/A   Mostly Cloudy
12:35 PM 44.6°F 41.0°F 87% 30.26 in 10.0 miles South 8.1 mph - N/A   Overcast
12:55 PM 44.6°F 41.0°F 87% 30.24 in 9.0 miles South 5.8 mph - N/A Rain Light Rain
1:15 PM 44.6°F 41.0°F 87% 30.23 in 9.0 miles South 9.2 mph - N/A   Partly Cloudy
1:55 PM 44.6°F 41.0°F 87% 30.23 in 10.0 miles South 9.2 mph - N/A   Overcast
2:15 PM 44.6°F 41.0°F 87% 30.22 in 10.0 miles South 5.8 mph - N/A   Mostly Cloudy
2:35 PM 44.6°F 41.0°F 87% 30.22 in 9.0 miles South 8.1 mph - N/A Rain Light Rain
2:55 PM 44.6°F 41.0°F 87% 30.22 in 6.0 miles South 5.8 mph - N/A Rain Light Rain
3:15 PM 44.6°F 42.8°F 93% 30.22 in 4.0 miles South 5.8 mph - N/A Rain Light Rain
3:35 PM 44.6°F 42.8°F 93% 30.22 in 3.0 miles South 6.9 mph - N/A Rain Light Rain
3:55 PM 44.6°F 42.8°F 93% 30.22 in 5.0 miles South 4.6 mph - N/A Rain Light Rain
4:15 PM 44.6°F 42.8°F 93% 30.21 in 5.0 miles South 5.8 mph - N/A Rain Light Rain
4:35 PM 44.6°F 42.8°F 93% 30.21 in 6.0 miles South 5.8 mph - N/A Rain Light Rain
4:55 PM 44.6°F 42.8°F 93% 30.21 in 5.0 miles South 4.6 mph - N/A Rain Light Rain
5:15 PM 44.6°F 42.8°F 93% 30.21 in 4.0 miles South 6.9 mph - N/A Rain Light Rain
5:35 PM 44.6°F 42.8°F 93% 30.21 in 5.0 miles South 6.9 mph - N/A Rain Light Rain
5:55 PM 44.6°F 42.8°F 93% 30.21 in 5.0 miles South 5.8 mph - N/A Rain Light Rain
6:15 PM 42.8°F 42.8°F 100% 30.21 in 5.0 miles South 4.6 mph - N/A Rain Light Rain
6:35 PM 44.6°F 42.8°F 93% 30.21 in 7.0 miles South 4.6 mph - N/A Rain Light Rain
6:55 PM 44.6°F 42.8°F 93% 30.20 in 7.0 miles South 5.8 mph - N/A Rain Light Rain
7:15 PM 44.6°F 42.8°F 93% 30.20 in 7.0 miles South 8.1 mph - N/A   Mostly Cloudy
7:35 PM 44.6°F 42.8°F 93% 30.20 in 7.0 miles South 5.8 mph - N/A Rain Light Rain
7:55 PM 42.8°F 42.8°F 100% 30.20 in 6.0 miles South 6.9 mph - N/A Rain Light Rain
8:15 PM 42.8°F 42.8°F 100% 30.19 in 9.0 miles South 4.6 mph - N/A   Overcast
8:35 PM 44.6°F 42.8°F 93% 30.18 in 10.0 miles South 5.8 mph - N/A   Overcast
8:55 PM 44.6°F 42.8°F 93% 30.18 in 10.0 miles South 4.6 mph - N/A   Overcast
9:15 PM 44.6°F 42.8°F 93% 30.18 in 10.0 miles South 4.6 mph - N/A   Overcast
9:35 PM 44.6°F 42.8°F 93% 30.18 in 10.0 miles SSW 8.1 mph - N/A   Overcast
9:55 PM 44.6°F 42.8°F 93% 30.18 in 10.0 miles SSW 10.4 mph - N/A   Overcast
10:15 PM 44.6°F 42.8°F 93% 30.18 in 10.0 miles SSW 10.4 mph - N/A   Mostly Cloudy
10:35 PM 44.6°F 42.8°F 93% 30.18 in 10.0 miles SSW 10.4 mph - N/A   Overcast
10:55 PM 44.6°F 42.8°F 93% 30.17 in 10.0 miles South 10.4 mph - N/A   Overcast
11:15 PM 44.6°F 42.8°F 93% 30.17 in 10.0 miles SSW 11.5 mph - N/A   Mostly Cloudy
11:55 PM 44.6°F 41.0°F 87% 30.16 in 10.0 miles South 6.9 mph - N/A   Overcast
Moon Phase
Feb. 03 Feb. 10 Feb. 17 Feb. 25 Mar. 04
Sunrise:07:37 AM (PST) Moon Rise:01:13 AM (PST)2/3
Sunset:05:13 PM (PST) Moon Set:10:51 AM (PST)2/3

Copyright © 2014 The Weather Underground, Inc.